Location: Dammartin
(48.9032°N, 1.6195°E)
Time: 12:08:59
(UTC+00:00)

CZ-4B R/B - Pass Details

Date: 03 February 2023
Orbit: 809 x 881 km, 99.0° (Epoch: 25 March)

Event Time Altitude Azimuth Distance (km) Brightness Sun altitude
Rises 17:49:37 0° 137° (SE) 3,340 6.0 -9.5°
Reaches altitude 10° 17:52:05 10° 129° (SE) 2,420 5.2 -9.9°
Maximum altitude 17:56:57 37° 64° (ENE) 1,273 3.7 -10.6°
Drops below altitude 10° 18:01:56 10° 358° (N) 2,476 5.5 -11.4°
Sets 18:04:29 0° 351° (N) 3,428 6.3 -11.9°
